This demonstration page uses our WeatherBlox Daily Observations layout. Learn more.

Left ArrowRight Arrow

38.80484, -77.04692

Hourly Observations for April 27, 2016

Temp ( °F °C ) Dew Point ( °F °C ) Humidity (%) Winds ( mph kmh ) Pressure ( in mb ) Visibility ( mi km ) Precip ( " mm )
12:52 am 00:52 Cloudy 72 22.2 60 15.6 66 66 S 9 15 29.75 1007 10 16 0.00 0.00
1:52 am 01:52 Mostly Cloudy 70 21.1 61 16.1 73 73 S 7 11 29.74 1007 10 16 0.00 0.00
2:52 am 02:52 Cloudy 69 20.6 61 16.1 76 76 Calm 29.75 1007 10 16 0.00 0.00
3:52 am 03:52 Cloudy 63 17.2 57 13.9 81 81 NE 18 30 29.78 1008 10 16 0.00 0.00
4:52 am 04:52 Cloudy 62 16.7 57 13.9 84 84 NNE 14 22 29.80 1009 10 16 0.00 0.00
5:52 am 05:52 Cloudy with Light Rain 59 15 55 12.8 87 87 NE 20 31 29.84 1010 7 11 0.00 0.03
6:52 am 06:52 Cloudy with Light Rain 57 13.9 54 12.2 90 90 ENE 9 15 29.85 1011 5 8 0.00 0.03
7:04 am 07:04 Cloudy with Light Rain 57 14 54 12 88 88 E 8 13 29.85 1011 7 11 0.00 0.00
7:52 am 07:52 Cloudy 56 13.3 53 11.7 90 90 E 10 17 29.90 1013 8 13 0.00 0.03
8:52 am 08:52 Cloudy with Light Rain 55 12.8 52 11.1 90 90 E 12 19 29.91 1013 5 8 0.01 0.25
9:52 am 09:52 Cloudy with Light Rain 54 12.2 51 10.6 90 90 E 10 17 29.91 1013 10 16 0.01 0.25
10:52 am 10:52 Cloudy 55 12.8 50 10 83 83 E 8 13 29.92 1013 10 16 0.01 0.25
11:52 am 11:52 Cloudy 55 12.8 50 10 83 83 E 9 15 29.93 1013 10 16 0.00 0.00
12:52 pm 12:52 Cloudy 54 12.2 50 10 87 87 E 8 13 29.91 1013 10 16 0.00 0.00
1:52 pm 13:52 Cloudy 55 12.8 50 10 83 83 ENE 5 7 29.91 1013 10 16 0.00 0.00
2:52 pm 14:52 Cloudy 55 12.8 50 10 83 83 Calm 29.91 1013 10 16 0.00 0.00
3:52 pm 15:52 Cloudy 56 13.3 50 10 81 81 E 5 7 29.90 1012 10 16 0.00 0.00
4:52 pm 16:52 Cloudy 56 13.3 50 10 81 81 E 5 7 29.91 1013 10 16 0.00 0.00
5:52 pm 17:52 Cloudy 56 13.3 50 10 81 81 E 8 13 29.91 1013 10 16 0.00 0.00
6:29 pm 18:29 Cloudy 56 13.3 50 10 81 81 ENE 6 9 29.91 1013 10 16 0.00 0.00
6:52 pm 18:52 Cloudy 56 13.3 49 9.4 77 77 E 7 11 29.92 1013 10 16 0.00 0.00
7:52 pm 19:52 Cloudy 56 13.3 50 10 81 81 E 8 13 29.92 1013 10 16 0.00 0.00
8:22 pm 20:22 Cloudy 55 13 50 10 82 82 E 8 13 29.91 1013 10 16 0.00 0.00
8:43 pm 20:43 Cloudy with Light Rain 55 12.8 50 10 83 83 E 7 11 29.94 1014 9 14 0.00 0.03
8:52 pm 20:52 Cloudy with Light Rain 54 12.2 50 10 87 87 E 7 11 29.93 1014 10 16 0.00 0.03
9:42 pm 21:42 Cloudy with Light Rain 54 12 50 10 88 88 E 5 7 29.94 1014 10 16 0.00 0.00
9:52 pm 21:52 Cloudy 54 12.2 49 9.4 83 83 E 3 6 29.94 1014 10 16 0.00 0.03
10:52 pm 22:52 Cloudy 54 12.2 50 10 87 87 SE 3 6 29.94 1014 10 16 0.00 0.00
11:40 pm 23:40 Mostly Cloudy 54 12 48 9 82 82 S 7 11 29.94 1014 10 16 0.00 0.00
11:52 pm 23:52 Mostly Cloudy 54 12.2 49 9.4 83 83 S 7 11 29.94 1014 10 16 0.00 0.00

Powered by AerisWeather